This is the latest recevied weather packets stored in our database for station/object KF5JED-13. If no packets are shown the sender has not sent any weather packets the latest 10 day(s).
| Time | Temp. | Humidity | Pressure | Rain* | Wind** | Luminosity | Snow |
|---|---|---|---|---|---|---|---|
| 1777840126 | 25.56° C | 24% | 1015.2 hPa | 0 mm | - | 817 W/m² | - |
| 1777839825 | 26.11° C | 24% | 1015.2 hPa | 0 mm | - | 818 W/m² | - |
| 1777839523 | 25° C | 25% | 1015.3 hPa | 0 mm | - | 809 W/m² | - |
| 1777839220 | 25° C | 25% | 1015.3 hPa | 0 mm | - | 759 W/m² | - |
| 1777838917 | 24.44° C | 25% | 1015.5 hPa | 0 mm | - | 806 W/m² | - |
| 1777838612 | 25° C | 25% | 1015.5 hPa | 0 mm | - | 781 W/m² | - |
| 1777838311 | 25° C | 26% | 1015.6 hPa | 0 mm | - | 850 W/m² | - |
| 1777838007 | 25° C | 24% | 1015.6 hPa | 0 mm | - | 833 W/m² | - |
| 1777837704 | 24.44° C | 25% | 1016.1 hPa | 0 mm | - | 820 W/m² | - |
| 1777837400 | 24.44° C | 26% | 1016 hPa | 0 mm | - | 775 W/m² | - |
| 1777837096 | 24.44° C | 25% | 1016 hPa | 0 mm | - | 825 W/m² | - |
| 1777836792 | 25.56° C | 24% | 1016.1 hPa | 0 mm | - | 876 W/m² | - |
| 1777836488 | 24.44° C | 26% | 1016.1 hPa | 0 mm | - | 864 W/m² | - |
| 1777836183 | 23.33° C | 28% | 1016.1 hPa | 0 mm | - | 741 W/m² | - |
| 1777835880 | 23.89° C | 27% | 1016.5 hPa | 0 mm | - | 767 W/m² | - |
| 1777835578 | 23.33° C | 27% | 1016.5 hPa | 0 mm | - | 750 W/m² | - |
| 1777835274 | 23.89° C | 27% | 1016.2 hPa | 0 mm | - | 775 W/m² | - |
| 1777834971 | 23.33° C | 29% | 1016.5 hPa | 0 mm | - | 799 W/m² | - |
| 1777834668 | 23.89° C | 27% | 1016.7 hPa | 0 mm | - | 828 W/m² | - |
| 1777834364 | 23.33° C | 27% | 1016.8 hPa | 0 mm | - | 772 W/m² | - |
| 1777834058 | 23.89° C | 27% | 1016.7 hPa | 0 mm | - | 814 W/m² | - |
| 1777833755 | 23.89° C | 26% | 1016.9 hPa | 0 mm | - | 852 W/m² | - |
| 1777833451 | 23.33° C | 28% | 1017.1 hPa | 0 mm | - | 855 W/m² | - |
| 1777833149 | 23.33° C | 29% | 1017 hPa | 0 mm | - | 898 W/m² | - |
| 1777832846 | 23.33° C | 29% | 1017.5 hPa | 0 mm | - | 879 W/m² | - |
* Rain latest hour (hover to see other rain measurements)
** Current wind speed in m/s (hover to see current wind gust speed)